FW7566 Weather Reports


time (UTC)temp
C
wind
direction
speed
KPH
gust
KPH
rain 1hr
cm
rain 24hr
cm
rain mn
cm
humidity
%
barometer
mb
20260505195007 27 345 4.8 9.7 0.00 0.00 0.00 34 1007.9
20260505194504 28 219 11.3 17.7 0.00 0.00 0.00 37 1008.0
20260505194004 28 201 11.3 12.9 0.00 0.00 0.00 37 1008.0
20260505193501 28 240 9.7 16.1 0.00 0.00 0.00 36 1007.8
20260505192953 28 162 4.8 4.8 0.00 0.00 0.00 35 1008.1
20260505192452 28 179 4.8 8.0 0.00 0.00 0.00 34 1008.0
20260505191949 28 179 12.9 20.9 0.00 0.00 0.00 34 1008.1
20260505191447 28 174 14.5 25.7 0.00 0.00 0.00 36 1008.3
20260505190944 28 212 17.7 20.9 0.00 0.00 0.00 38 1008.4
20260505190439 28 203 6.4 8.0 0.00 0.00 0.00 37 1008.5
20260505185935 28 297 8.0 16.1 0.00 0.00 0.00 35 1008.4
20260505185432 27 200 1.6 4.8 0.00 0.00 0.00 37 1008.4
20260505184928 28 231 14.5 35.4 0.00 0.00 0.00 35 1008.6
20260505184425 28 201 8.0 12.9 0.00 0.00 0.00 35 1008.6
20260505183922 28 297 4.8 4.8 0.00 0.00 0.00 37 1008.8
20260505183419 28 214 8.0 14.5 0.00 0.00 0.00 40 1009.0
20260505182916 27 194 8.0 9.7 0.00 0.00 0.00 38 1008.8
20260505182412 27 271 8.0 12.9 0.00 0.00 0.00 39 1008.7
20260505181909 28 121 6.4 14.5 0.00 0.00 0.00 39 1009.3
20260505181406 28 228 17.7 22.5 0.00 0.00 0.00 39 1008.8
20260505180903 28 250 3.2 3.2 0.00 0.00 0.00 42 1008.9
20260505180359 28 210 6.4 8.0 0.00 0.00 0.00 39 1009.0
20260505175856 28 122 4.8 9.7 0.00 0.00 0.00 39 1009.1
20260505175352 28 229 6.4 12.9 0.00 0.00 0.00 39 1009.1
20260505174849 28 141 3.2 3.2 0.00 0.00 0.00 42 1009.2
20260505174347 29 175 8.0 11.3 0.00 0.00 0.00 43 1009.0
20260505173842 28 236 1.6 1.6 0.00 0.00 0.00 41 1009.2
20260505173338 28 181 1.6 3.2 0.00 0.00 0.00 41 1009.1
20260505172830 28 306 6.4 9.7 0.00 0.00 0.00 39 1009.3
20260505172327 28 240 6.4 8.0 0.00 0.00 0.00 41 1009.3
20260505171821 27 157 4.8 8.0 0.00 0.00 0.00 43 1009.5
20260505171319 27 231 8.0 9.7 0.00 0.00 0.00 43 1009.5
20260505170815 28 201 1.6 3.2 0.00 0.00 0.00 44 1009.6
20260505170312 27 151 6.4 9.7 0.00 0.00 0.00 44 1009.6
20260505165807 27 204 6.4 12.9 0.00 0.00 0.00 43 1009.6
20260505165306 27 166 3.2 8.0 0.00 0.00 0.00 44 1009.6
20260505164759 28 224 1.6 3.2 0.00 0.00 0.00 45 1009.7
20260505164256 27 213 0.0 1.6 0.00 0.00 0.00 46 1009.9
20260505163755 27 177 6.4 9.7 0.00 0.00 0.00 45 1009.9
20260505163253 27 92 1.6 1.6 0.00 0.00 0.00 46 1009.9
20260505162750 27 274 3.2 3.2 0.00 0.00 0.00 46 1010.1
20260505162247 27 175 1.6 4.8 0.00 0.00 0.00 47 1010.0
20260505161744 27 175 4.8 8.0 0.00 0.00 0.00 45 1010.2
20260505161241 26 138 1.6 1.6 0.00 0.00 0.00 48 1010.2
20260505160738 26 251 6.4 8.0 0.00 0.00 0.00 47 1010.1
20260505160236 26 261 6.4 9.7 0.00 0.00 0.00 47 1010.3
20260505153215 25 200 3.2 3.2 0.00 0.00 0.00 50 1010.8
20260505152712 25 207 3.2 4.8 0.00 0.00 0.00 51 1010.7
20260505152209 24 111 3.2 3.2 0.00 0.00 0.00 52 1010.8
20260505151703 24 201 12.9 16.1 0.00 0.00 0.00 53 1010.8
20260505151201 23 194 8.0 9.7 0.00 0.00 0.00 54 1010.9
20260505150657 24 179 9.7 14.5 0.00 0.00 0.00 53 1010.8
20260505150155 24 211 4.8 4.8 0.00 0.00 0.00 53 1010.8
20260505140622 22 210 1.6 3.2 0.00 0.00 0.00 58 1011.5
20260505140119 22 202 4.8 4.8 0.00 0.00 0.00 60 1011.2
20260505125036 19 236 4.8 4.8 0.00 0.00 0.00 65 1011.3
20260505124533 18 239 3.2 4.8 0.00 0.00 0.00 68 1011.0
20260505124029 18 183 3.2 3.2 0.00 0.00 0.00 70 1011.1
20260505123525 18 183 1.6 1.6 0.00 0.00 0.00 71 1010.5
20260505123021 17 142 8.0 11.3 0.00 0.00 0.00 70 1010.8
20260505122519 17 143 1.6 1.6 0.00 0.00 0.00 72 1010.9
20260505122016 17 180 4.8 4.8 0.00 0.00 0.00 73 1010.8
20260505121512 17 174 3.2 3.2 0.00 0.00 0.00 75 1011.1
20260505121009 16 200 3.2 4.8 0.00 0.00 0.00 77 1011.1
20260505120505 16 159 4.8 4.8 0.00 0.00 0.00 81 1011.1
20260505120006 15 161 8.0 11.3 0.00 0.00 0.00 86 1011.0
20260505115501 13 176 0.0 1.6 0.00 0.00 0.00 90 1011.2
20260505114959 13 160 1.6 1.6 0.00 0.00 0.00 92 1011.3
20260505114455 13 148 0.0 1.6 0.00 0.00 0.00 93 1011.0
20260505113952 12 192 3.2 4.8 0.00 0.00 0.00 94 1011.3
20260505113448 12 165 0.0 0.0 0.00 0.00 0.00 94 1011.3
20260505112944 12 165 0.0 0.0 0.00 0.00 0.00 94 1011.2
20260505112441 12 164 1.6 1.6 0.00 0.00 0.00 94 1011.1
20260505111937 12 180 0.0 0.0 0.00 0.00 0.00 95 1011.2
20260505111432 12 181 0.0 0.0 0.00 0.00 0.00 95 1011.2
20260505110929 12 182 1.6 3.2 0.00 0.00 0.00 96 1010.8
20260505110426 12 235 0.0 0.0 0.00 0.00 0.00 96 1011.1
20260505101857 10 276 0.0 1.6 0.00 0.00 0.00 96 1011.0
20260505101351 9 256 0.0 0.0 0.00 0.00 0.00 96 1011.0
20260505100848 9 265 0.0 1.6 0.00 0.00 0.00 96 1010.9
20260505100344 9 256 0.0 0.0 0.00 0.00 0.00 96 1010.8
20260505095840 9 257 0.0 0.0 0.00 0.00 0.00 96 1010.7
20260505095338 9 273 0.0 0.0 0.00 0.00 0.00 96 1010.6
20260505094833 9 267 0.0 0.0 0.00 0.00 0.00 96 1010.7
20260505094331 8 261 0.0 0.0 0.00 0.00 0.00 96 1010.5
20260505093826 9 261 0.0 0.0 0.00 0.00 0.00 96 1010.6
20260505093324 8 271 0.0 1.6 0.00 0.00 0.00 96 1010.1
20260505092820 9 265 0.0 0.0 0.00 0.00 0.00 96 1010.4
20260505092319 8 235 0.0 0.0 0.00 0.00 0.00 96 1010.4
20260505091816 9 235 0.0 0.0 0.00 0.00 0.00 96 1010.3
20260505091314 8 235 0.0 0.0 0.00 0.00 0.00 95 1010.4
20260505090812 8 235 0.0 0.0 0.00 0.00 0.00 95 1010.1
20260505090310 9 235 0.0 0.0 0.00 0.00 0.00 95 1010.2
20260505085807 9 235 0.0 0.0 0.00 0.00 0.00 95 1010.2
20260505085305 9 235 0.0 0.0 0.00 0.00 0.00 95 1010.1
20260505084802 9 235 0.0 0.0 0.00 0.00 0.00 95 1010.1
20260505084301 9 234 0.0 0.0 0.00 0.00 0.00 94 1010.2
20260505083757 9 235 0.0 0.0 0.00 0.00 0.00 94 1010.1
20260505083254 9 234 0.0 0.0 0.00 0.00 0.00 94 1010.2
20260505082750 9 234 0.0 0.0 0.00 0.00 0.00 94 1010.1
20260505082247 9 234 0.0 0.0 0.00 0.00 0.00 93 1010.1
20260505081743 9 234 0.0 0.0 0.00 0.00 0.00 93 1010.2
20260505081241 9 234 0.0 0.0 0.00 0.00 0.00 92 1010.1
20260505080737 10 234 0.0 0.0 0.00 0.00 0.00 92 1010.1
20260505080233 10 233 0.0 0.0 0.00 0.00 0.00 91 1010.4
20260505075728 10 233 0.0 0.0 0.00 0.00 0.00 91 1010.3
20260505075226 10 234 0.0 0.0 0.00 0.00 0.00 90 1010.3
20260505074723 10 232 0.0 0.0 0.00 0.00 0.00 90 1010.2
20260505074220 10 233 0.0 0.0 0.00 0.00 0.00 90 1010.2
20260505073718 10 228 0.0 0.0 0.00 0.00 0.00 89 1010.3
20260505073216 10 228 0.0 0.0 0.00 0.00 0.00 89 1010.1
20260505072712 10 228 0.0 0.0 0.00 0.00 0.00 89 1010.2
20260505072208 10 228 0.0 0.0 0.00 0.00 0.00 89 1010.1
20260505071704 10 228 0.0 0.0 0.00 0.00 0.00 88 1010.1
20260505071201 10 228 0.0 0.0 0.00 0.00 0.00 88 1009.9
20260505070659 10 228 0.0 0.0 0.00 0.00 0.00 88 1010.1
20260505070154 10 227 0.0 0.0 0.00 0.00 0.00 88 1010.2
20260505065651 10 227 0.0 0.0 0.00 0.00 0.00 88 1010.1
20260505065148 10 227 0.0 0.0 0.00 0.00 0.00 87 1010.2
20260505064644 10 227 0.0 0.0 0.00 0.00 0.00 87 1010.4
20260505064142 10 227 0.0 0.0 0.00 0.00 0.00 87 1010.2
20260505063640 10 227 0.0 0.0 0.00 0.00 0.00 87 1010.2
20260505063136 10 227 0.0 0.0 0.00 0.00 0.00 86 1010.2
20260505062633 10 227 0.0 0.0 0.00 0.00 0.00 86 1010.4
20260505062130 10 227 0.0 0.0 0.00 0.00 0.00 85 1010.2
20260505061626 10 227 0.0 0.0 0.00 0.00 0.00 85 1010.4
20260505061124 10 227 0.0 0.0 0.00 0.00 0.00 85 1010.5
20260505060622 10 227 0.0 0.0 0.00 0.00 0.00 84 1010.5
20260505060119 10 227 0.0 0.0 0.00 0.00 0.00 84 1010.5
20260505055614 10 227 0.0 0.0 0.00 0.00 0.00 84 1010.5
20260505055110 10 227 0.0 0.0 0.00 0.00 0.00 83 1010.4
20260505054608 10 227 0.0 0.0 0.00 0.00 0.00 83 1010.6
20260505054106 10 227 0.0 0.0 0.00 0.00 0.00 82 1010.7
20260505053603 11 227 0.0 0.0 0.00 0.00 0.00 81 1010.4
20260505053059 11 227 0.0 0.0 0.00 0.00 0.00 80 1010.5
20260505052556 11 228 0.0 0.0 0.00 0.00 0.00 79 1010.6
20260505052054 11 229 0.0 0.0 0.00 0.00 0.00 78 1010.9
20260505051551 11 222 0.0 0.0 0.00 0.00 0.00 78 1010.7
20260505051049 11 222 0.0 0.0 0.00 0.00 0.00 77 1010.5
20260505050547 11 222 0.0 0.0 0.00 0.00 0.00 77 1010.7
20260505041514 12 213 0.0 0.0 0.00 0.00 0.00 74 1010.9
20260505041012 11 213 0.0 0.0 0.00 0.00 0.00 74 1010.7
20260505040509 11 212 0.0 0.0 0.00 0.00 0.00 74 1010.9
20260505040006 11 212 0.0 0.0 0.00 0.00 0.00 73 1010.8
20260505035502 12 212 0.0 0.0 0.00 0.00 0.00 73 1010.7
20260505034959 12 212 0.0 0.0 0.00 0.00 0.00 72 1010.7
20260505034455 12 212 0.0 0.0 0.00 0.00 0.00 70 1010.6
20260505033953 12 212 0.0 0.0 0.00 0.00 0.00 69 1010.8
20260505033449 12 212 0.0 0.0 0.00 0.00 0.00 69 1010.8
20260505032948 12 212 0.0 0.0 0.00 0.00 0.00 69 1010.8
20260505032444 12 212 0.0 0.0 0.00 0.00 0.00 70 1010.5
20260505031941 12 212 0.0 0.0 0.00 0.00 0.00 70 1010.9
20260505031438 12 212 0.0 0.0 0.00 0.00 0.00 69 1010.9
20260505030935 12 212 0.0 0.0 0.00 0.00 0.00 69 1011.0
20260505030431 13 213 0.0 0.0 0.00 0.00 0.00 66 1010.9
20260505025926 13 214 0.0 0.0 0.00 0.00 0.00 65 1010.7
20260505025424 13 204 0.0 0.0 0.00 0.00 0.00 67 1010.8
20260505024923 13 204 0.0 0.0 0.00 0.00 0.00 66 1010.9
20260505024420 13 202 0.0 0.0 0.00 0.00 0.00 66 1011.0
20260505023917 13 201 0.0 0.0 0.00 0.00 0.00 65 1011.1
20260505023414 13 201 0.0 0.0 0.00 0.00 0.00 65 1011.1
20260505022911 13 201 0.0 0.0 0.00 0.00 0.00 64 1011.0
20260505022408 13 201 0.0 0.0 0.00 0.00 0.00 63 1011.0
20260505021905 13 198 0.0 0.0 0.00 0.00 0.00 63 1011.0
20260505021401 13 198 0.0 0.0 0.00 0.00 0.00 62 1011.0
20260505020857 13 198 0.0 0.0 0.00 0.00 0.00 62 1011.0
20260505020353 13 198 0.0 0.0 0.00 0.00 0.00 62 1010.9
20260505015850 14 198 0.0 0.0 0.00 0.00 0.00 60 1011.0
20260505015347 15 198 0.0 0.0 0.00 0.00 0.00 60 1010.9
20260505014845 15 198 0.0 0.0 0.00 0.00 0.00 58 1010.7
20260505014341 15 198 0.0 0.0 0.00 0.00 0.00 57 1010.8
20260505013838 15 200 0.0 0.0 0.00 0.00 0.00 56 1010.9
20260505013335 15 204 0.0 0.0 0.00 0.00 0.00 56 1010.7
20260505012833 15 205 0.0 1.6 0.00 0.00 0.00 56 1010.7
20260505012331 15 184 0.0 0.0 0.00 0.00 0.00 56 1010.6
20260505011826 16 184 0.0 0.0 0.00 0.00 0.00 55 1010.6
20260505011324 16 184 0.0 0.0 0.00 0.00 0.00 52 1010.7
20260505010820 16 199 0.0 0.0 0.00 0.00 0.00 51 1010.4
20260505010316 17 199 0.0 0.0 0.00 0.00 0.00 50 1010.3
20260505005812 17 199 0.0 1.6 0.00 0.00 0.00 50 1010.3
20260505005309 17 200 0.0 0.0 0.00 0.00 0.00 49 1010.4
20260505004807 17 190 1.6 1.6 0.00 0.00 0.00 49 1010.2
20260505004302 18 210 0.0 0.0 0.00 0.00 0.00 48 1010.0
20260505003800 18 192 0.0 0.0 0.00 0.00 0.00 47 1010.3
20260505003257 18 218 0.0 0.0 0.00 0.00 0.00 46 1010.1
20260505002753 18 255 1.6 1.6 0.00 0.00 0.00 46 1010.1
20260505002251 18 256 3.2 3.2 0.00 0.00 0.00 46 1010.0
20260505001749 18 213 1.6 1.6 0.00 0.00 0.00 46 1010.0
20260505001246 18 204 0.0 0.0 0.00 0.00 0.00 46 1009.8
20260505000743 19 213 0.0 0.0 0.00 0.00 0.00 45 1009.5
20260505000241 19 207 0.0 1.6 0.00 0.00 0.00 45 1009.7
20260504235737 19 189 0.0 1.6 0.00 0.00 0.00 45 1009.7
20260504235233 20 222 1.6 1.6 0.00 0.00 0.00 44 1009.9
20260504234730 20 202 3.2 4.8 0.00 0.00 0.00 44 1009.5
20260504234228 20 230 1.6 1.6 0.00 0.00 0.00 43 1009.4
20260504233724 20 235 1.6 3.2 0.00 0.00 0.00 43 1009.3
20260504233220 20 68 1.6 1.6 0.00 0.00 0.00 43 1009.3
20260504232717 20 204 0.0 1.6 0.00 0.00 0.00 42 1009.1
20260504232214 20 177 0.0 1.6 0.00 0.00 0.00 43 1009.1
20260504231711 20 260 4.8 8.0 0.00 0.00 0.00 42 1009.1
20260504231207 20 184 1.6 1.6 0.00 0.00 0.00 42 1009.3
20260504230703 20 158 1.6 3.2 0.00 0.00 0.00 42 1008.8
20260504230202 20 219 4.8 4.8 0.00 0.00 0.00 42 1008.9
20260504225700 20 254 3.2 3.2 0.00 0.00 0.00 41 1008.8
20260504225156 21 229 1.6 1.6 0.00 0.00 0.00 40 1009.1
20260504224653 21 273 4.8 4.8 0.00 0.00 0.00 40 1008.9
20260504224150 21 323 0.0 1.6 0.00 0.00 0.00 40 1008.9
20260504223647 21 318 4.8 4.8 0.00 0.00 0.00 39 1009.0
20260504223142 21 115 4.8 4.8 0.00 0.00 0.00 39 1009.0
20260504222640 21 114 1.6 1.6 0.00 0.00 0.00 39 1009.0
20260504222136 21 99 0.0 1.6 0.00 0.00 0.00 40 1008.8
20260504221634 21 228 11.3 20.9 0.00 0.00 0.00 38 1008.8
20260504221131 21 184 6.4 9.7 0.00 0.00 0.00 39 1009.0
20260504220627 21 19 4.8 8.0 0.00 0.00 0.00 38 1009.1
20260504220125 22 142 0.0 1.6 0.00 0.00 0.00 39 1009.1
20260504215621 22 202 6.4 9.7 0.00 0.00 0.00 38 1009.2
20260504215119 21 232 4.8 4.8 0.00 0.00 0.00 37 1009.0
20260504214614 22 175 0.0 1.6 0.00 0.00 0.00 38 1009.4
20260504214111 21 177 0.0 1.6 0.00 0.00 0.00 38 1009.5
20260504213607 22 250 1.6 3.2 0.00 0.00 0.00 39 1009.3
20260504213104 21 192 4.8 4.8 0.00 0.00 0.00 38 1009.6
20260504212600 22 217 3.2 4.8 0.00 0.00 0.00 38 1009.4
20260504212057 23 198 8.0 17.7 0.00 0.00 0.00 36 1009.5
20260504211554 23 218 3.2 3.2 0.00 0.00 0.00 36 1009.5
20260504211051 23 336 4.8 4.8 0.00 0.00 0.00 35 1009.4
20260504210549 23 268 0.0 1.6 0.00 0.00 0.00 36 1009.3
20260504210045 22 329 3.2 3.2 0.00 0.00 0.00 38 1009.5
20260504205543 23 271 4.8 8.0 0.00 0.00 0.00 35 1009.4
20260504205041 23 232 4.8 4.8 0.00 0.00 0.00 36 1009.6
20260504204538 23 290 3.2 4.8 0.00 0.00 0.00 35 1009.4
20260504204037 23 214 3.2 4.8 0.00 0.00 0.00 36 1009.3
20260504203535 23 269 3.2 3.2 0.00 0.00 0.00 35 1009.2
20260504203032 22 267 1.6 1.6 0.00 0.00 0.00 36 1009.1
20260504202527 22 333 3.2 3.2 0.00 0.00 0.00 36 1009.4
20260504202025 23 229 3.2 4.8 0.00 0.00 0.00 36 1009.4
20260504201522 22 199 6.4 9.7 0.00 0.00 0.00 36 1009.3
20260504201020 23 24 4.8 8.0 0.00 0.00 0.00 35 1009.5
20260504200515 23 177 6.4 8.0 0.00 0.00 0.00 38 1009.5
20260504200013 22 271 6.4 9.7 0.00 0.00 0.00 36 1009.6
20260504195509 23 187 4.8 8.0 0.00 0.00 0.00 35 1009.6